owner,sensor,date,latitude,longitude,air_pressure(mBar),qcFlag 
COMPS,ioos:station:USF.COMPS:TAR:1,2011-11-01T00:00:00Z,28.1560,-82.7580,1016.5,1111122 
COMPS,ioos:station:USF.COMPS:TAR:1,2011-11-01T00:06:00Z,28.1560,-82.7580,1016.53,1111122 
COMPS,ioos:station:USF.COMPS:TAR:1,2011-11-01T00:12:00Z,28.1560,-82.7580,1016.61,1111122 
COMPS,ioos:station:USF.COMPS:TAR:1,2011-11-01T00:18:00Z,28.1560,-82.7580,1016.61,1111122 
COMPS,ioos:station:USF.COMPS:TAR:1,2011-11-01T00:24:00Z,28.1560,-82.7580,1016.72,1111122 
COMPS,ioos:station:USF.COMPS:TAR:1,2011-11-01T00:30:00Z,28.1560,-82.7580,1016.73,1111122 
COMPS,ioos:station:USF.COMPS:TAR:1,2011-11-01T00:36:00Z,28.1560,-82.7580,1016.74,1111122 
COMPS,ioos:station:USF.COMPS:TAR:1,2011-11-01T00:42:00Z,28.1560,-82.7580,1016.8,1111122 
COMPS,ioos:station:USF.COMPS:TAR:1,2011-11-01T00:48:00Z,28.1560,-82.7580,1016.81,1111122 
COMPS,ioos:station:USF.COMPS:TAR:1,2011-11-01T00:54:00Z,28.1560,-82.7580,1016.85,1111122 
COMPS,ioos:station:USF.COMPS:TAR:1,2011-11-01T01:00:00Z,28.1560,-82.7580,1016.9,1111122 
COMPS,ioos:station:USF.COMPS:TAR:1,2011-11-01T01:06:00Z,28.1560,-82.7580,1017.04,1111122 
COMPS,ioos:station:USF.COMPS:TAR:1,2011-11-01T01:12:00Z,28.1560,-82.7580,1017.06,1111122 
COMPS,ioos:station:USF.COMPS:TAR:1,2011-11-01T01:18:00Z,28.1560,-82.7580,1017.13,1111122 
COMPS,ioos:station:USF.COMPS:TAR:1,2011-11-01T01:24:00Z,28.1560,-82.7580,1017.21,1111122 
COMPS,ioos:station:USF.COMPS:TAR:1,2011-11-01T01:30:00Z,28.1560,-82.7580,1017.21,1111122 
COMPS,ioos:station:USF.COMPS:TAR:1,2011-11-01T01:36:00Z,28.1560,-82.7580,1017.22,1111122 
COMPS,ioos:station:USF.COMPS:TAR:1,2011-11-01T01:42:00Z,28.1560,-82.7580,1017.33,1111122 
COMPS,ioos:station:USF.COMPS:TAR:1,2011-11-01T01:48:00Z,28.1560,-82.7580,1017.41,1111122 
COMPS,ioos:station:USF.COMPS:TAR:1,2011-11-01T01:54:00Z,28.1560,-82.7580,1017.41,1111122 
COMPS,ioos:station:USF.COMPS:TAR:1,2011-11-01T02:00:00Z,28.1560,-82.7580,1017.4,1111122 
COMPS,ioos:station:USF.COMPS:TAR:1,2011-11-01T04:00:00Z,28.1560,-82.7580,1018.22,1111122 
COMPS,ioos:station:USF.COMPS:TAR:1,2011-11-01T04:06:00Z,28.1560,-82.7580,1018.25,1111122 
COMPS,ioos:station:USF.COMPS:TAR:1,2011-11-01T04:12:00Z,28.1560,-82.7580,1018.25,1111122 
COMPS,ioos:station:USF.COMPS:TAR:1,2011-11-01T04:18:00Z,28.1560,-82.7580,1018.25,1111122 
COMPS,ioos:station:USF.COMPS:TAR:1,2011-11-01T04:24:00Z,28.1560,-82.7580,1018.24,1111122 
COMPS,ioos:station:USF.COMPS:TAR:1,2011-11-01T04:30:00Z,28.1560,-82.7580,1018.3,1111122 
COMPS,ioos:station:USF.COMPS:TAR:1,2011-11-01T04:36:00Z,28.1560,-82.7580,1018.37,1111122 
COMPS,ioos:station:USF.COMPS:TAR:1,2011-11-01T04:42:00Z,28.1560,-82.7580,1018.37,1111122 
COMPS,ioos:station:USF.COMPS:TAR:1,2011-11-01T04:48:00Z,28.1560,-82.7580,1018.33,1111122 
COMPS,ioos:station:USF.COMPS:TAR:1,2011-11-01T04:54:00Z,28.1560,-82.7580,1018.32,1111122 
COMPS,ioos:station:USF.COMPS:TAR:1,2011-11-01T05:00:00Z,28.1560,-82.7580,1018.3,1111122 
COMPS,ioos:station:USF.COMPS:TAR:1,2011-11-01T07:00:00Z,28.1560,-82.7580,1018.3,1111122 
COMPS,ioos:station:USF.COMPS:TAR:1,2011-11-01T07:06:00Z,28.1560,-82.7580,1018.29,1111122 
COMPS,ioos:station:USF.COMPS:TAR:1,2011-11-01T07:12:00Z,28.1560,-82.7580,1018.28,1111122 
COMPS,ioos:station:USF.COMPS:TAR:1,2011-11-01T07:18:00Z,28.1560,-82.7580,1018.25,1111122 
COMPS,ioos:station:USF.COMPS:TAR:1,2011-11-01T07:24:00Z,28.1560,-82.7580,1018.22,1111122 
COMPS,ioos:station:USF.COMPS:TAR:1,2011-11-01T07:30:00Z,28.1560,-82.7580,1018.28,1111122 
COMPS,ioos:station:USF.COMPS:TAR:1,2011-11-01T07:36:00Z,28.1560,-82.7580,1018.28,1111122 
COMPS,ioos:station:USF.COMPS:TAR:1,2011-11-01T07:42:00Z,28.1560,-82.7580,1018.28,1111122 
COMPS,ioos:station:USF.COMPS:TAR:1,2011-11-01T07:48:00Z,28.1560,-82.7580,1018.28,1111122 
COMPS,ioos:station:USF.COMPS:TAR:1,2011-11-01T07:54:00Z,28.1560,-82.7580,1018.28,1111122 
COMPS,ioos:station:USF.COMPS:TAR:1,2011-11-01T08:00:00Z,28.1560,-82.7580,1018.3,1111122 
COMPS,ioos:station:USF.COMPS:TAR:1,2011-11-01T08:06:00Z,28.1560,-82.7580,1018.3,1111122 
COMPS,ioos:station:USF.COMPS:TAR:1,2011-11-01T08:12:00Z,28.1560,-82.7580,1018.32,1111122 
COMPS,ioos:station:USF.COMPS:TAR:1,2011-11-01T08:18:00Z,28.1560,-82.7580,1018.42,1111122 
COMPS,ioos:station:USF.COMPS:TAR:1,2011-11-01T08:24:00Z,28.1560,-82.7580,1018.44,1111122 
COMPS,ioos:station:USF.COMPS:TAR:1,2011-11-01T08:30:00Z,28.1560,-82.7580,1018.48,1111122 
COMPS,ioos:station:USF.COMPS:TAR:1,2011-11-01T08:36:00Z,28.1560,-82.7580,1018.52,1111122 
COMPS,ioos:station:USF.COMPS:TAR:1,2011-11-01T08:42:00Z,28.1560,-82.7580,1018.6,1111122 
COMPS,ioos:station:USF.COMPS:TAR:1,2011-11-01T08:48:00Z,28.1560,-82.7580,1018.53,1111122 
COMPS,ioos:station:USF.COMPS:TAR:1,2011-11-01T08:54:00Z,28.1560,-82.7580,1018.57,1111122 
COMPS,ioos:station:USF.COMPS:TAR:1,2011-11-01T09:00:00Z,28.1560,-82.7580,1018.6,1111122 
COMPS,ioos:station:USF.COMPS:TAR:1,2011-11-01T09:06:00Z,28.1560,-82.7580,1018.7,1111122 
COMPS,ioos:station:USF.COMPS:TAR:1,2011-11-01T09:12:00Z,28.1560,-82.7580,1018.66,1111122 
COMPS,ioos:station:USF.COMPS:TAR:1,2011-11-01T09:18:00Z,28.1560,-82.7580,1018.65,1111122 
COMPS,ioos:station:USF.COMPS:TAR:1,2011-11-01T09:24:00Z,28.1560,-82.7580,1018.64,1111122 
COMPS,ioos:station:USF.COMPS:TAR:1,2011-11-01T09:30:00Z,28.1560,-82.7580,1018.65,1111122 
COMPS,ioos:station:USF.COMPS:TAR:1,2011-11-01T09:36:00Z,28.1560,-82.7580,1018.66,1111122 
COMPS,ioos:station:USF.COMPS:TAR:1,2011-11-01T09:42:00Z,28.1560,-82.7580,1018.7,1111122 
COMPS,ioos:station:USF.COMPS:TAR:1,2011-11-01T09:48:00Z,28.1560,-82.7580,1018.72,1111122 
COMPS,ioos:station:USF.COMPS:TAR:1,2011-11-01T09:54:00Z,28.1560,-82.7580,1018.72,1111122 
COMPS,ioos:station:USF.COMPS:TAR:1,2011-11-01T10:00:00Z,28.1560,-82.7580,1018.7,1111122 
COMPS,ioos:station:USF.COMPS:TAR:1,2011-11-01T12:00:00Z,28.1560,-82.7580,1019.53,1111122 
COMPS,ioos:station:USF.COMPS:TAR:1,2011-11-01T12:06:00Z,28.1560,-82.7580,1019.6,1111122 
COMPS,ioos:station:USF.COMPS:TAR:1,2011-11-01T12:12:00Z,28.1560,-82.7580,1019.72,1111122 
COMPS,ioos:station:USF.COMPS:TAR:1,2011-11-01T12:18:00Z,28.1560,-82.7580,1019.72,1111122 
COMPS,ioos:station:USF.COMPS:TAR:1,2011-11-01T12:24:00Z,28.1560,-82.7580,1019.78,1111122 
COMPS,ioos:station:USF.COMPS:TAR:1,2011-11-01T12:30:00Z,28.1560,-82.7580,1019.82,1111122 
COMPS,ioos:station:USF.COMPS:TAR:1,2011-11-01T12:36:00Z,28.1560,-82.7580,1019.89,1111122 
COMPS,ioos:station:USF.COMPS:TAR:1,2011-11-01T12:42:00Z,28.1560,-82.7580,1020.01,1111122 
COMPS,ioos:station:USF.COMPS:TAR:1,2011-11-01T12:48:00Z,28.1560,-82.7580,1020.06,1111122 
COMPS,ioos:station:USF.COMPS:TAR:1,2011-11-01T12:54:00Z,28.1560,-82.7580,1020.17,1111122 
COMPS,ioos:station:USF.COMPS:TAR:1,2011-11-01T13:00:00Z,28.1560,-82.7580,1020.2,1111122 
COMPS,ioos:station:USF.COMPS:TAR:1,2011-11-01T13:06:00Z,28.1560,-82.7580,1020.36,1111122 
COMPS,ioos:station:USF.COMPS:TAR:1,2011-11-01T13:12:00Z,28.1560,-82.7580,1020.42,1111122 
COMPS,ioos:station:USF.COMPS:TAR:1,2011-11-01T13:18:00Z,28.1560,-82.7580,1020.32,1111122 
COMPS,ioos:station:USF.COMPS:TAR:1,2011-11-01T13:24:00Z,28.1560,-82.7580,1020.26,1111122 
COMPS,ioos:station:USF.COMPS:TAR:1,2011-11-01T13:30:00Z,28.1560,-82.7580,1020.29,1111122 
COMPS,ioos:station:USF.COMPS:TAR:1,2011-11-01T13:36:00Z,28.1560,-82.7580,1020.34,1111122 
COMPS,ioos:station:USF.COMPS:TAR:1,2011-11-01T13:42:00Z,28.1560,-82.7580,1020.4,1111122 
COMPS,ioos:station:USF.COMPS:TAR:1,2011-11-01T13:48:00Z,28.1560,-82.7580,1020.46,1111122 
COMPS,ioos:station:USF.COMPS:TAR:1,2011-11-01T13:54:00Z,28.1560,-82.7580,1020.46,1111122 
COMPS,ioos:station:USF.COMPS:TAR:1,2011-11-01T14:00:00Z,28.1560,-82.7580,1020.5,1111122 
COMPS,ioos:station:USF.COMPS:TAR:1,2011-11-01T15:00:00Z,28.1560,-82.7580,1020.8,1111122 
COMPS,ioos:station:USF.COMPS:TAR:1,2011-11-01T15:06:00Z,28.1560,-82.7580,1020.62,1111122 
COMPS,ioos:station:USF.COMPS:TAR:1,2011-11-01T15:12:00Z,28.1560,-82.7580,1020.6,1111122 
COMPS,ioos:station:USF.COMPS:TAR:1,2011-11-01T15:18:00Z,28.1560,-82.7580,1020.54,1111122 
COMPS,ioos:station:USF.COMPS:TAR:1,2011-11-01T15:24:00Z,28.1560,-82.7580,1020.56,1111122 
COMPS,ioos:station:USF.COMPS:TAR:1,2011-11-01T15:30:00Z,28.1560,-82.7580,1020.52,1111122 
COMPS,ioos:station:USF.COMPS:TAR:1,2011-11-01T15:36:00Z,28.1560,-82.7580,1020.45,1111122 
COMPS,ioos:station:USF.COMPS:TAR:1,2011-11-01T15:42:00Z,28.1560,-82.7580,1020.38,1111122 
COMPS,ioos:station:USF.COMPS:TAR:1,2011-11-01T15:48:00Z,28.1560,-82.7580,1020.28,1111122 
COMPS,ioos:station:USF.COMPS:TAR:1,2011-11-01T15:54:00Z,28.1560,-82.7580,1020.22,1111122 
COMPS,ioos:station:USF.COMPS:TAR:1,2011-11-01T16:00:00Z,28.1560,-82.7580,1020.2,1111122 
COMPS,ioos:station:USF.COMPS:TAR:1,2011-11-01T16:06:00Z,28.1560,-82.7580,1020.26,1111122 
COMPS,ioos:station:USF.COMPS:TAR:1,2011-11-01T16:12:00Z,28.1560,-82.7580,1020.26,1111122 
COMPS,ioos:station:USF.COMPS:TAR:1,2011-11-01T16:18:00Z,28.1560,-82.7580,1020.16,1111122 
COMPS,ioos:station:USF.COMPS:TAR:1,2011-11-01T16:24:00Z,28.1560,-82.7580,1020.1,1111122 
COMPS,ioos:station:USF.COMPS:TAR:1,2011-11-01T16:30:00Z,28.1560,-82.7580,1020.06,1111122 
COMPS,ioos:station:USF.COMPS:TAR:1,2011-11-01T16:36:00Z,28.1560,-82.7580,1019.94,1111122 
COMPS,ioos:station:USF.COMPS:TAR:1,2011-11-01T16:42:00Z,28.1560,-82.7580,1019.89,1111122 
COMPS,ioos:station:USF.COMPS:TAR:1,2011-11-01T16:48:00Z,28.1560,-82.7580,1019.81,1111122 
COMPS,ioos:station:USF.COMPS:TAR:1,2011-11-01T16:54:00Z,28.1560,-82.7580,1019.7,1111122 
COMPS,ioos:station:USF.COMPS:TAR:1,2011-11-01T17:00:00Z,28.1560,-82.7580,1019.7,1111122 
COMPS,ioos:station:USF.COMPS:TAR:1,2011-11-01T19:00:00Z,28.1560,-82.7580,1018.49,1111122 
COMPS,ioos:station:USF.COMPS:TAR:1,2011-11-01T19:06:00Z,28.1560,-82.7580,1018.46,1111122 
COMPS,ioos:station:USF.COMPS:TAR:1,2011-11-01T19:12:00Z,28.1560,-82.7580,1018.48,1111122 
COMPS,ioos:station:USF.COMPS:TAR:1,2011-11-01T19:18:00Z,28.1560,-82.7580,1018.53,1111122 
COMPS,ioos:station:USF.COMPS:TAR:1,2011-11-01T19:24:00Z,28.1560,-82.7580,1018.56,1111122 
COMPS,ioos:station:USF.COMPS:TAR:1,2011-11-01T19:30:00Z,28.1560,-82.7580,1018.54,1111122 
COMPS,ioos:station:USF.COMPS:TAR:1,2011-11-01T19:36:00Z,28.1560,-82.7580,1018.46,1111122 
COMPS,ioos:station:USF.COMPS:TAR:1,2011-11-01T19:42:00Z,28.1560,-82.7580,1018.45,1111122 
COMPS,ioos:station:USF.COMPS:TAR:1,2011-11-01T19:48:00Z,28.1560,-82.7580,1018.46,1111122 
COMPS,ioos:station:USF.COMPS:TAR:1,2011-11-01T19:54:00Z,28.1560,-82.7580,1018.44,1111122 
COMPS,ioos:station:USF.COMPS:TAR:1,2011-11-01T20:00:00Z,28.1560,-82.7580,1018.4,1111122 
COMPS,ioos:station:USF.COMPS:TAR:1,2011-11-01T20:06:00Z,28.1560,-82.7580,1018.45,1111122 
COMPS,ioos:station:USF.COMPS:TAR:1,2011-11-01T20:12:00Z,28.1560,-82.7580,1018.53,1111122 
COMPS,ioos:station:USF.COMPS:TAR:1,2011-11-01T20:18:00Z,28.1560,-82.7580,1018.61,1111122 
COMPS,ioos:station:USF.COMPS:TAR:1,2011-11-01T20:24:00Z,28.1560,-82.7580,1018.66,1111122 
COMPS,ioos:station:USF.COMPS:TAR:1,2011-11-01T20:30:00Z,28.1560,-82.7580,1018.68,1111122 
COMPS,ioos:station:USF.COMPS:TAR:1,2011-11-01T20:36:00Z,28.1560,-82.7580,1018.66,1111122 
COMPS,ioos:station:USF.COMPS:TAR:1,2011-11-01T20:42:00Z,28.1560,-82.7580,1018.7,1111122 
COMPS,ioos:station:USF.COMPS:TAR:1,2011-11-01T20:48:00Z,28.1560,-82.7580,1018.73,1111122 
COMPS,ioos:station:USF.COMPS:TAR:1,2011-11-01T20:54:00Z,28.1560,-82.7580,1018.82,1111122 
COMPS,ioos:station:USF.COMPS:TAR:1,2011-11-01T21:00:00Z,28.1560,-82.7580,1018.8,1111122 
COMPS,ioos:station:USF.COMPS:TAR:1,2011-11-01T21:06:00Z,28.1560,-82.7580,1018.86,1111122 
COMPS,ioos:station:USF.COMPS:TAR:1,2011-11-01T21:12:00Z,28.1560,-82.7580,1018.93,1111122 
COMPS,ioos:station:USF.COMPS:TAR:1,2011-11-01T21:18:00Z,28.1560,-82.7580,1018.93,1111122 
COMPS,ioos:station:USF.COMPS:TAR:1,2011-11-01T21:24:00Z,28.1560,-82.7580,1018.97,1111122 
COMPS,ioos:station:USF.COMPS:TAR:1,2011-11-01T21:30:00Z,28.1560,-82.7580,1019.0,1111122 
COMPS,ioos:station:USF.COMPS:TAR:1,2011-11-01T21:36:00Z,28.1560,-82.7580,1018.98,1111122 
COMPS,ioos:station:USF.COMPS:TAR:1,2011-11-01T21:42:00Z,28.1560,-82.7580,1018.96,1111122 
COMPS,ioos:station:USF.COMPS:TAR:1,2011-11-01T21:48:00Z,28.1560,-82.7580,1019.0,1111122 
COMPS,ioos:station:USF.COMPS:TAR:1,2011-11-01T21:54:00Z,28.1560,-82.7580,1019.01,1111122 
COMPS,ioos:station:USF.COMPS:TAR:1,2011-11-01T22:00:00Z,28.1560,-82.7580,1019.0,1111122 
COMPS,ioos:station:USF.COMPS:TAR:1,2011-11-01T22:06:00Z,28.1560,-82.7580,1019.09,1111122 
COMPS,ioos:station:USF.COMPS:TAR:1,2011-11-01T22:12:00Z,28.1560,-82.7580,1019.14,1111122 
COMPS,ioos:station:USF.COMPS:TAR:1,2011-11-01T22:18:00Z,28.1560,-82.7580,1019.2,1111122 
COMPS,ioos:station:USF.COMPS:TAR:1,2011-11-01T22:24:00Z,28.1560,-82.7580,1019.25,1111122 
COMPS,ioos:station:USF.COMPS:TAR:1,2011-11-01T22:30:00Z,28.1560,-82.7580,1019.28,1111122 
COMPS,ioos:station:USF.COMPS:TAR:1,2011-11-01T22:36:00Z,28.1560,-82.7580,1019.37,1111122 
COMPS,ioos:station:USF.COMPS:TAR:1,2011-11-01T22:42:00Z,28.1560,-82.7580,1019.48,1111122 
COMPS,ioos:station:USF.COMPS:TAR:1,2011-11-01T22:48:00Z,28.1560,-82.7580,1019.52,1111122 
COMPS,ioos:station:USF.COMPS:TAR:1,2011-11-01T22:54:00Z,28.1560,-82.7580,1019.53,1111122 
COMPS,ioos:station:USF.COMPS:TAR:1,2011-11-02T00:00:00Z,28.1560,-82.7580,1020.37,1111122 
COMPS,ioos:station:USF.COMPS:TAR:1,2011-11-02T00:06:00Z,28.1560,-82.7580,1020.46,1111122 
COMPS,ioos:station:USF.COMPS:TAR:1,2011-11-02T00:12:00Z,28.1560,-82.7580,1020.48,1111122 
COMPS,ioos:station:USF.COMPS:TAR:1,2011-11-02T00:18:00Z,28.1560,-82.7580,1020.53,1111122 
COMPS,ioos:station:USF.COMPS:TAR:1,2011-11-02T00:24:00Z,28.1560,-82.7580,1020.61,1111122 
COMPS,ioos:station:USF.COMPS:TAR:1,2011-11-02T00:30:00Z,28.1560,-82.7580,1020.66,1111122 
COMPS,ioos:station:USF.COMPS:TAR:1,2011-11-02T00:36:00Z,28.1560,-82.7580,1020.76,1111122 
COMPS,ioos:station:USF.COMPS:TAR:1,2011-11-02T00:42:00Z,28.1560,-82.7580,1020.81,1111122 
COMPS,ioos:station:USF.COMPS:TAR:1,2011-11-02T00:48:00Z,28.1560,-82.7580,1020.86,1111122 
COMPS,ioos:station:USF.COMPS:TAR:1,2011-11-02T00:54:00Z,28.1560,-82.7580,1020.96,1111122 
COMPS,ioos:station:USF.COMPS:TAR:1,2011-11-02T01:00:00Z,28.1560,-82.7580,1021.0,1111122 
COMPS,ioos:station:USF.COMPS:TAR:1,2011-11-02T07:00:00Z,28.1560,-82.7580,1020.21,1111122 
COMPS,ioos:station:USF.COMPS:TAR:1,2011-11-02T07:06:00Z,28.1560,-82.7580,1020.21,1111122 
COMPS,ioos:station:USF.COMPS:TAR:1,2011-11-02T07:12:00Z,28.1560,-82.7580,1020.21,1111122 
COMPS,ioos:station:USF.COMPS:TAR:1,2011-11-02T07:18:00Z,28.1560,-82.7580,1020.2,1111122 
COMPS,ioos:station:USF.COMPS:TAR:1,2011-11-02T07:24:00Z,28.1560,-82.7580,1020.2,1111122 
COMPS,ioos:station:USF.COMPS:TAR:1,2011-11-02T07:30:00Z,28.1560,-82.7580,1020.18,1111122 
COMPS,ioos:station:USF.COMPS:TAR:1,2011-11-02T07:36:00Z,28.1560,-82.7580,1020.1,1111122 
COMPS,ioos:station:USF.COMPS:TAR:1,2011-11-02T07:42:00Z,28.1560,-82.7580,1020.1,1111122 
COMPS,ioos:station:USF.COMPS:TAR:1,2011-11-02T07:48:00Z,28.1560,-82.7580,1020.08,1111122 
COMPS,ioos:station:USF.COMPS:TAR:1,2011-11-02T07:54:00Z,28.1560,-82.7580,1020.09,1111122 
COMPS,ioos:station:USF.COMPS:TAR:1,2011-11-02T08:00:00Z,28.1560,-82.7580,1020.1,1111122 
COMPS,ioos:station:USF.COMPS:TAR:1,2011-11-02T09:00:00Z,28.1560,-82.7580,1020.21,1111122 
COMPS,ioos:station:USF.COMPS:TAR:1,2011-11-02T09:06:00Z,28.1560,-82.7580,1020.24,1111122 
COMPS,ioos:station:USF.COMPS:TAR:1,2011-11-02T09:12:00Z,28.1560,-82.7580,1020.3,1111122 
COMPS,ioos:station:USF.COMPS:TAR:1,2011-11-02T09:18:00Z,28.1560,-82.7580,1020.3,1111122 
COMPS,ioos:station:USF.COMPS:TAR:1,2011-11-02T09:24:00Z,28.1560,-82.7580,1020.36,1111122 
COMPS,ioos:station:USF.COMPS:TAR:1,2011-11-02T09:30:00Z,28.1560,-82.7580,1020.37,1111122 
COMPS,ioos:station:USF.COMPS:TAR:1,2011-11-02T09:36:00Z,28.1560,-82.7580,1020.4,1111122 
COMPS,ioos:station:USF.COMPS:TAR:1,2011-11-02T09:42:00Z,28.1560,-82.7580,1020.52,1111122 
COMPS,ioos:station:USF.COMPS:TAR:1,2011-11-02T09:48:00Z,28.1560,-82.7580,1020.5,1111122 
COMPS,ioos:station:USF.COMPS:TAR:1,2011-11-02T09:54:00Z,28.1560,-82.7580,1020.5,1111122 
COMPS,ioos:station:USF.COMPS:TAR:1,2011-11-02T10:00:00Z,28.1560,-82.7580,1020.5,1111122 
COMPS,ioos:station:USF.COMPS:TAR:1,2011-11-02T10:06:00Z,28.1560,-82.7580,1020.52,1111122 
COMPS,ioos:station:USF.COMPS:TAR:1,2011-11-02T10:12:00Z,28.1560,-82.7580,1020.53,1111122 
COMPS,ioos:station:USF.COMPS:TAR:1,2011-11-02T10:18:00Z,28.1560,-82.7580,1020.53,1111122 
COMPS,ioos:station:USF.COMPS:TAR:1,2011-11-02T10:24:00Z,28.1560,-82.7580,1020.57,1111122 
COMPS,ioos:station:USF.COMPS:TAR:1,2011-11-02T10:30:00Z,28.1560,-82.7580,1020.6,1111122 
COMPS,ioos:station:USF.COMPS:TAR:1,2011-11-02T10:36:00Z,28.1560,-82.7580,1020.61,1111122 
COMPS,ioos:station:USF.COMPS:TAR:1,2011-11-02T10:42:00Z,28.1560,-82.7580,1020.61,1111122 
COMPS,ioos:station:USF.COMPS:TAR:1,2011-11-02T10:48:00Z,28.1560,-82.7580,1020.7,1111122 
COMPS,ioos:station:USF.COMPS:TAR:1,2011-11-02T10:54:00Z,28.1560,-82.7580,1020.76,1111122 
COMPS,ioos:station:USF.COMPS:TAR:1,2011-11-02T11:00:00Z,28.1560,-82.7580,1020.8,1111122 
COMPS,ioos:station:USF.COMPS:TAR:1,2011-11-02T12:00:00Z,28.1560,-82.7580,1021.22,1111122 
COMPS,ioos:station:USF.COMPS:TAR:1,2011-11-02T12:06:00Z,28.1560,-82.7580,1021.24,1111122 
COMPS,ioos:station:USF.COMPS:TAR:1,2011-11-02T12:12:00Z,28.1560,-82.7580,1021.3,1111122 
COMPS,ioos:station:USF.COMPS:TAR:1,2011-11-02T12:18:00Z,28.1560,-82.7580,1021.36,1111122 
COMPS,ioos:station:USF.COMPS:TAR:1,2011-11-02T12:24:00Z,28.1560,-82.7580,1021.37,1111122 
COMPS,ioos:station:USF.COMPS:TAR:1,2011-11-02T12:30:00Z,28.1560,-82.7580,1021.38,1111122 
COMPS,ioos:station:USF.COMPS:TAR:1,2011-11-02T12:36:00Z,28.1560,-82.7580,1021.5,1111122 
COMPS,ioos:station:USF.COMPS:TAR:1,2011-11-02T12:42:00Z,28.1560,-82.7580,1021.56,1111122 
COMPS,ioos:station:USF.COMPS:TAR:1,2011-11-02T12:48:00Z,28.1560,-82.7580,1021.57,1111122 
COMPS,ioos:station:USF.COMPS:TAR:1,2011-11-02T12:54:00Z,28.1560,-82.7580,1021.66,1111122 
COMPS,ioos:station:USF.COMPS:TAR:1,2011-11-02T13:00:00Z,28.1560,-82.7580,1021.7,1111122 
COMPS,ioos:station:USF.COMPS:TAR:1,2011-11-02T13:06:00Z,28.1560,-82.7580,1021.78,1111122 
COMPS,ioos:station:USF.COMPS:TAR:1,2011-11-02T13:12:00Z,28.1560,-82.7580,1021.9,1111122 
COMPS,ioos:station:USF.COMPS:TAR:1,2011-11-02T13:18:00Z,28.1560,-82.7580,1021.8,1111122 
COMPS,ioos:station:USF.COMPS:TAR:1,2011-11-02T13:24:00Z,28.1560,-82.7580,1021.7,1111122 
COMPS,ioos:station:USF.COMPS:TAR:1,2011-11-02T13:30:00Z,28.1560,-82.7580,1021.73,1111122 
COMPS,ioos:station:USF.COMPS:TAR:1,2011-11-02T13:36:00Z,28.1560,-82.7580,1021.89,1111122 
COMPS,ioos:station:USF.COMPS:TAR:1,2011-11-02T13:42:00Z,28.1560,-82.7580,1021.96,1111122 
COMPS,ioos:station:USF.COMPS:TAR:1,2011-11-02T13:48:00Z,28.1560,-82.7580,1021.97,1111122 
COMPS,ioos:station:USF.COMPS:TAR:1,2011-11-02T13:54:00Z,28.1560,-82.7580,1022.12,1111122 
COMPS,ioos:station:USF.COMPS:TAR:1,2011-11-02T14:00:00Z,28.1560,-82.7580,1022.1,1111122 
COMPS,ioos:station:USF.COMPS:TAR:1,2011-11-02T14:06:00Z,28.1560,-82.7580,1022.14,1111122 
COMPS,ioos:station:USF.COMPS:TAR:1,2011-11-02T14:12:00Z,28.1560,-82.7580,1022.14,1111122 
COMPS,ioos:station:USF.COMPS:TAR:1,2011-11-02T14:18:00Z,28.1560,-82.7580,1022.08,1111122 
COMPS,ioos:station:USF.COMPS:TAR:1,2011-11-02T14:24:00Z,28.1560,-82.7580,1022.0,1111122 
COMPS,ioos:station:USF.COMPS:TAR:1,2011-11-02T14:30:00Z,28.1560,-82.7580,1022.02,1111122 
COMPS,ioos:station:USF.COMPS:TAR:1,2011-11-02T14:36:00Z,28.1560,-82.7580,1022.1,1111122 
COMPS,ioos:station:USF.COMPS:TAR:1,2011-11-02T14:42:00Z,28.1560,-82.7580,1022.16,1111122 
COMPS,ioos:station:USF.COMPS:TAR:1,2011-11-02T14:48:00Z,28.1560,-82.7580,1022.21,1111122 
COMPS,ioos:station:USF.COMPS:TAR:1,2011-11-02T14:54:00Z,28.1560,-82.7580,1022.21,1111122 
COMPS,ioos:station:USF.COMPS:TAR:1,2011-11-02T15:00:00Z,28.1560,-82.7580,1022.2,1111122 
COMPS,ioos:station:USF.COMPS:TAR:1,2011-11-02T15:06:00Z,28.1560,-82.7580,1022.21,1111122 
COMPS,ioos:station:USF.COMPS:TAR:1,2011-11-02T15:12:00Z,28.1560,-82.7580,1022.17,1111122 
COMPS,ioos:station:USF.COMPS:TAR:1,2011-11-02T15:18:00Z,28.1560,-82.7580,1022.16,1111122 
COMPS,ioos:station:USF.COMPS:TAR:1,2011-11-02T15:24:00Z,28.1560,-82.7580,1022.14,1111122 
COMPS,ioos:station:USF.COMPS:TAR:1,2011-11-02T15:30:00Z,28.1560,-82.7580,1022.13,1111122 
COMPS,ioos:station:USF.COMPS:TAR:1,2011-11-02T15:36:00Z,28.1560,-82.7580,1022.1,1111122 
COMPS,ioos:station:USF.COMPS:TAR:1,2011-11-02T15:42:00Z,28.1560,-82.7580,1022.13,1111122 
COMPS,ioos:station:USF.COMPS:TAR:1,2011-11-02T15:48:00Z,28.1560,-82.7580,1022.1,1111122 
COMPS,ioos:station:USF.COMPS:TAR:1,2011-11-02T15:54:00Z,28.1560,-82.7580,1022.02,1111122 
COMPS,ioos:station:USF.COMPS:TAR:1,2011-11-02T16:00:00Z,28.1560,-82.7580,1022.0,1111122 
COMPS,ioos:station:USF.COMPS:TAR:1,2011-11-02T17:00:00Z,28.1560,-82.7580,1021.08,1111122 
COMPS,ioos:station:USF.COMPS:TAR:1,2011-11-02T17:06:00Z,28.1560,-82.7580,1021.1,1111122 
COMPS,ioos:station:USF.COMPS:TAR:1,2011-11-02T17:12:00Z,28.1560,-82.7580,1021.12,1111122 
COMPS,ioos:station:USF.COMPS:TAR:1,2011-11-02T17:18:00Z,28.1560,-82.7580,1021.02,1111122 
COMPS,ioos:station:USF.COMPS:TAR:1,2011-11-02T17:24:00Z,28.1560,-82.7580,1020.9,1111122 
COMPS,ioos:station:USF.COMPS:TAR:1,2011-11-02T17:30:00Z,28.1560,-82.7580,1020.85,1111122 
COMPS,ioos:station:USF.COMPS:TAR:1,2011-11-02T17:36:00Z,28.1560,-82.7580,1020.65,1111122 
COMPS,ioos:station:USF.COMPS:TAR:1,2011-11-02T17:42:00Z,28.1560,-82.7580,1020.49,1111122 
COMPS,ioos:station:USF.COMPS:TAR:1,2011-11-02T17:48:00Z,28.1560,-82.7580,1020.36,1111122 
COMPS,ioos:station:USF.COMPS:TAR:1,2011-11-02T17:54:00Z,28.1560,-82.7580,1020.28,1111122 
COMPS,ioos:station:USF.COMPS:TAR:1,2011-11-02T18:00:00Z,28.1560,-82.7580,1020.3,1111122 
COMPS,ioos:station:USF.COMPS:TAR:1,2011-11-02T18:06:00Z,28.1560,-82.7580,1020.05,1111122 
COMPS,ioos:station:USF.COMPS:TAR:1,2011-11-02T18:12:00Z,28.1560,-82.7580,1019.92,1111122 
COMPS,ioos:station:USF.COMPS:TAR:1,2011-11-02T18:18:00Z,28.1560,-82.7580,1019.88,1111122 
COMPS,ioos:station:USF.COMPS:TAR:1,2011-11-02T18:24:00Z,28.1560,-82.7580,1019.8,1111122 
COMPS,ioos:station:USF.COMPS:TAR:1,2011-11-02T18:30:00Z,28.1560,-82.7580,1019.69,1111122 
COMPS,ioos:station:USF.COMPS:TAR:1,2011-11-02T18:36:00Z,28.1560,-82.7580,1019.6,1111122 
COMPS,ioos:station:USF.COMPS:TAR:1,2011-11-02T18:42:00Z,28.1560,-82.7580,1019.52,1111122 
COMPS,ioos:station:USF.COMPS:TAR:1,2011-11-02T18:48:00Z,28.1560,-82.7580,1019.5,1111122 
COMPS,ioos:station:USF.COMPS:TAR:1,2011-11-02T18:54:00Z,28.1560,-82.7580,1019.48,1111122 
COMPS,ioos:station:USF.COMPS:TAR:1,2011-11-02T19:00:00Z,28.1560,-82.7580,1019.5,1111122 
COMPS,ioos:station:USF.COMPS:TAR:1,2011-11-02T19:06:00Z,28.1560,-82.7580,1019.45,1111122 
COMPS,ioos:station:USF.COMPS:TAR:1,2011-11-02T19:12:00Z,28.1560,-82.7580,1019.42,1111122 
COMPS,ioos:station:USF.COMPS:TAR:1,2011-11-02T19:18:00Z,28.1560,-82.7580,1019.41,1111122 
COMPS,ioos:station:USF.COMPS:TAR:1,2011-11-02T19:24:00Z,28.1560,-82.7580,1019.41,1111122 
COMPS,ioos:station:USF.COMPS:TAR:1,2011-11-02T19:30:00Z,28.1560,-82.7580,1019.4,1111122 
COMPS,ioos:station:USF.COMPS:TAR:1,2011-11-02T19:36:00Z,28.1560,-82.7580,1019.34,1111122 
COMPS,ioos:station:USF.COMPS:TAR:1,2011-11-02T19:42:00Z,28.1560,-82.7580,1019.3,1111122 
COMPS,ioos:station:USF.COMPS:TAR:1,2011-11-02T19:48:00Z,28.1560,-82.7580,1019.26,1111122 
COMPS,ioos:station:USF.COMPS:TAR:1,2011-11-02T19:54:00Z,28.1560,-82.7580,1019.14,1111122 
COMPS,ioos:station:USF.COMPS:TAR:1,2011-11-02T20:00:00Z,28.1560,-82.7580,1019.1,1111122 
COMPS,ioos:station:USF.COMPS:TAR:1,2011-11-02T20:06:00Z,28.1560,-82.7580,1019.04,1111122 
COMPS,ioos:station:USF.COMPS:TAR:1,2011-11-02T20:12:00Z,28.1560,-82.7580,1019.04,1111122 
COMPS,ioos:station:USF.COMPS:TAR:1,2011-11-02T20:18:00Z,28.1560,-82.7580,1019.02,1111122 
COMPS,ioos:station:USF.COMPS:TAR:1,2011-11-02T20:24:00Z,28.1560,-82.7580,1019.02,1111122 
COMPS,ioos:station:USF.COMPS:TAR:1,2011-11-02T20:30:00Z,28.1560,-82.7580,1019.01,1111122 
COMPS,ioos:station:USF.COMPS:TAR:1,2011-11-02T20:36:00Z,28.1560,-82.7580,1018.98,1111122 